Погода в Боровом

Украина / Ровненская область     51°06′01″N   27°13′02″E
темп.,
°C
ветер,
м/с
пор.,
м/с
влажн.,
%
обл.,
%
осадки,
мм/ч
давл.,
гПа
погр.,
м
16 июня, ср
ср1600:00+15с259130 0.0 1015101
03:00+13с259199 0.0 1016114
06:00+13с269355 0.0 1015143
09:00+20ссв367053 0.0 1016549
12:00+23с45605 0.6 10161314
15:00+24с4652100 0.7 10161488
18:00+22с3759100 0.0 1016427
21:00+18с38733 0.0 1018192
17 июня, чт
чт1700:00+14ссв25802 0.0 101996
03:00+12ссв24870 0.0 102071
06:00+13св25880 0.0 1020114
09:00+20св35620 0.0 1021548
12:00+25св34482 0.0 10211591
15:00+26всв3448100 0.0 10211773
18:00+24всв355999 0.0 1021856
21:00+19св39790 0.0 1022229
18 июня, пт
пт1800:00+16всв25830 0.0 102397
03:00+14в24950 0.0 102386
06:00+14в26945 0.0 1024145
09:00+20в46630 0.0 1024609
12:00+25в45460 0.0 10231252
15:00+27в45440 0.0 10221575
18:00+25вюв45490 0.0 10221330
21:00+19в28795 0.0 1022181
19 июня, сб
сб1900:00+16вюв29960 0.0 1023201
03:00+15в26971 0.0 1023123
06:00+15в26965 0.0 1023152
09:00+21в35705 0.0 1023612
12:00+25в45510 0.0 10221508
15:00+26вюв45445 0.0 10201760
18:00+25вюв455122 0.0 10201674
21:00+20юв26835 0.1 1020154
20 июня, вс
вс2000:00+17вюв26955 0.0 1021136
03:00+16вюв259790 0.0 102196
06:00+15в259512 0.0 1021131
09:00+20в367799 0.0 1020376
12:00+24вюв567146 0.6 10201156
15:00+26юв3556100 2.6 10181599
18:00+26вюв4652100 0.0 10171646
21:00+21вюв267894 0.0 1018144